FW6987 Weather Reports


Display with metric or nautical units.
time (UTC)temp
F
wind
direction
speed
MPH
gust
MPH
rain 1hr
in
rain 24hr
in
rain mn
in
humidity
%
barometer
mb
20260508001558 51 0 0.0 3.0 0.00 0.02 0.01 55 999.4
20260508000048 52 0 0.0 2.0 0.00 0.02 0.01 54 999.2
20260507234552 53 2 0.0 2.0 0.00 0.13 0.01 52 999.3
20260507233051 54 0 0.0 2.0 0.00 0.13 0.01 51 999.1
20260507231551 55 330 0.0 2.0 0.00 0.13 0.01 50 999.0
20260507230108 56 333 0.0 4.0 0.00 0.13 0.01 48 999.1
20260507224552 57 4 1.0 3.0 0.00 0.13 0.01 47 998.9
20260507223155 57 141 2.0 8.0 0.00 0.13 0.01 39 998.8
20260507221555 58 131 1.0 3.0 0.00 0.13 0.01 40 998.9
20260507220049 58 0 0.0 3.0 0.00 0.13 0.01 44 999.0
20260507214558 59 136 0.0 4.0 0.00 0.14 0.01 40 999.0
20260507213100 58 150 0.0 7.0 0.00 0.14 0.01 39 998.7
20260507211553 59 157 1.0 6.0 0.00 0.14 0.01 38 998.6
20260507210057 59 0 3.0 5.0 0.00 0.14 0.01 39 998.5
20260507204551 60 0 1.0 8.0 0.00 0.14 0.01 39 998.6
20260507203054 59 121 1.0 9.0 0.00 0.14 0.01 40 998.5
20260507201605 60 104 3.0 6.0 0.00 0.14 0.01 37 998.5
20260507200104 59 146 2.0 6.0 0.00 0.14 0.01 42 998.4
20260507194552 59 148 0.0 4.0 0.00 0.15 0.01 40 998.9
20260507193053 59 134 5.0 11.0 0.00 0.15 0.01 39 998.7
20260507191550 58 125 2.0 8.0 0.00 0.15 0.01 39 999.0
20260507190053 58 151 2.0 9.0 0.00 0.15 0.01 39 999.1
20260507184549 60 133 3.0 9.0 0.00 0.17 0.01 39 999.0
20260507183055 59 205 1.0 7.0 0.00 0.17 0.01 40 999.3
20260507181601 58 177 1.0 9.0 0.00 0.17 0.01 41 999.5
20260507180056 58 21 3.0 10.0 0.00 0.17 0.01 42 999.5
20260507174557 59 58 2.0 7.0 0.00 0.29 0.01 45 999.7
20260507173059 58 164 3.0 9.0 0.00 0.29 0.01 42 999.9
20260507171600 58 230 2.0 7.0 0.00 0.29 0.01 44 1000.0
20260507170052 57 119 2.0 8.0 0.00 0.29 0.01 43 1000.0
20260507164554 57 218 3.0 9.0 0.00 0.37 0.01 41 1000.2
20260507163050 57 168 2.0 8.0 0.00 0.37 0.01 41 1000.1
20260507161607 57 129 1.0 8.0 0.00 0.37 0.01 45 1000.4
20260507160052 57 0 2.0 15.0 0.00 0.37 0.01 47 1000.8
20260507154553 55 127 2.0 9.0 0.00 0.46 0.01 45 1001.0
20260507153111 55 0 1.0 6.0 0.00 0.46 0.01 50 1001.3
20260507151558 54 31 3.0 10.0 0.00 0.46 0.01 46 1001.5
20260507150055 54 127 3.0 8.0 0.00 0.46 0.01 50 1001.4
20260507144555 52 77 0.0 6.0 0.00 0.47 0.01 54 1001.6
20260507143055 52 40 3.0 8.0 0.00 0.47 0.01 46 1001.8
20260507141556 51 0 0.0 8.0 0.00 0.47 0.01 54 1001.8
20260507140049 50 167 1.0 11.0 0.00 0.47 0.01 53 1001.9
20260507134558 50 105 1.0 7.0 0.00 0.47 0.01 55 1002.2
20260507133055 49 103 3.0 7.0 0.00 0.47 0.01 55 1002.1
20260507131554 48 299 3.0 11.0 0.00 0.47 0.01 54 1002.1
20260507130109 48 291 2.0 6.0 0.00 0.47 0.01 59 1002.1
20260507124615 47 308 1.0 6.0 0.00 0.47 0.01 63 1001.8
20260507123108 47 289 2.0 6.0 0.00 0.47 0.01 62 1001.7
20260507121602 46 168 1.0 5.0 0.00 0.47 0.01 64 1001.7
20260507120055 46 299 0.0 6.0 0.00 0.47 0.01 69 1001.8
20260507114555 46 293 0.0 6.0 0.00 0.47 0.01 74 1001.9
20260507113055 46 12 2.0 8.0 0.00 0.47 0.01 76 1001.7
20260507111554 46 245 3.0 8.0 0.00 0.47 0.01 81 1001.4
20260507110056 46 107 1.0 4.0 0.00 0.47 0.01 86 1001.3
20260507104556 46 89 1.0 3.0 0.00 0.47 0.01 89 1001.1
20260507103100 46 0 0.0 1.0 0.00 0.47 0.01 89 1000.8
20260507101601 46 0 0.0 3.0 0.00 0.47 0.01 88 1000.6
20260507100111 46 115 0.0 4.0 0.00 0.47 0.01 87 1000.0
20260507094552 46 0 0.0 0.0 0.00 0.47 0.01 86 999.7
20260507093051 47 0 0.0 0.0 0.00 0.47 0.01 86 999.8
20260507091547 47 0 0.0 0.0 0.00 0.47 0.01 85 999.8
20260507090050 47 0 0.0 4.0 0.00 0.47 0.01 84 999.7
20260507084552 47 0 0.0 2.0 0.00 0.47 0.01 84 999.8
20260507083109 48 135 0.0 3.0 0.00 0.47 0.01 84 999.7
20260507081600 48 128 0.0 2.0 0.00 0.47 0.01 83 999.8
20260507080055 48 0 1.0 4.0 0.00 0.47 0.01 83 1000.0
20260507074605 49 0 2.0 5.0 0.00 0.47 0.01 81 1000.3
20260507073101 49 150 3.0 6.0 0.00 0.47 0.01 82 1000.3
20260507071554 49 0 0.0 5.0 0.00 0.47 0.01 82 1000.7
20260507070053 48 0 3.0 7.0 0.00 0.47 0.01 83 1000.4
20260507064553 48 241 2.0 5.0 0.01 0.47 0.01 87 1000.0
20260507063056 49 237 1.0 6.0 0.01 0.47 0.01 89 1000.0
20260507061558 49 0 0.0 3.0 0.01 0.47 0.01 89 1000.0
20260507060059 49 0 0.0 8.0 0.01 0.47 0.01 89 999.6
20260507054555 50 0 1.0 3.0 0.00 0.46 0.00 88 999.7
20260507053053 50 115 0.0 5.0 0.00 0.46 0.00 87 999.6
20260507051554 51 125 0.0 4.0 0.00 0.46 0.00 86 999.9
20260507050055 50 235 2.0 10.0 0.00 0.46 0.00 86 999.9
20260507044553 50 282 2.0 5.0 0.00 0.46 0.00 87 1000.0
20260507043049 50 207 0.0 4.0 0.00 0.46 0.00 88 1000.3
20260507041549 50 258 1.0 6.0 0.00 0.46 0.00 89 1000.1
20260507040051 51 314 2.0 4.0 0.00 0.46 0.00 91 1000.2
20260507034553 52 317 1.0 3.0 0.00 0.46 0.46 92 1000.0
20260507033052 52 0 0.0 0.0 0.00 0.46 0.46 92 999.8
20260507031550 52 0 0.0 1.0 0.00 0.46 0.46 92 999.9
20260507030053 53 0 0.0 2.0 0.00 0.46 0.46 92 999.8
20260507024603 53 0 0.0 1.0 0.00 0.46 0.46 92 999.9
20260507023049 53 0 1.0 3.0 0.00 0.46 0.46 91 1000.2
20260507021549 53 0 0.0 4.0 0.00 0.46 0.46 91 1000.2
20260507020106 53 320 2.0 7.0 0.00 0.46 0.46 91 1000.0
20260507014603 54 0 0.0 3.0 0.00 0.46 0.46 92 999.9
20260507013054 55 0 0.0 3.0 0.00 0.46 0.46 92 999.3
20260507011550 55 0 0.0 3.0 0.00 0.46 0.46 92 999.0
20260507010050 55 0 0.0 3.0 0.01 0.46 0.46 92 998.8
20260507004556 55 133 1.0 5.0 0.02 0.46 0.46 93 998.4
20260507003057 56 113 1.0 7.0 0.05 0.46 0.46 93 998.0